CAPE
1580 2304 2669 2931 2570 2096 1926 1798 2074 2334 2469 2938 2812 2701 2625 2276 1957 1890 1687 1696 1641 1475 1364 1450 1366 1463 1303 1173 930 813 670 871 1209 585 946 1140 837 767 878 898 691 0 0
1892 2641 2562 3157 2844 2147 2115 2292 2188 2595 2546 2664 2813 2607 2388 2315 2190 2196 1980 1717 1762 1589 1556 1562 1488 1396 1059 1145 682 552 470 1169 1074 1115 988 893 343 185 497 235 178 81 0
2356 2630 2954 3185 3083 2321 2161 2431 2417 2459 2358 2413 2629 2376 2359 2564 2413 2164 1783 1754 1782 1499 1498 1718 1614 1488 1068 862 592 919 664 897 1181 806 890 858 85 179 530 898 37 732 180
2202 2487 2775 3254 3215 2589 2283 2446 2660 2353 2096 2390 2352 2477 2488 2356 2222 1988 1929 1855 1963 2018 1846 1866 1653 1142 847 935 855 1144 1241 1220 1176 899 617 633 204 767 491 633 0 338 942
2019 2204 2600 3037 3128 2585 2188 2457 2649 2801 2522 2177 1960 2443 2018 1881 1919 2062 2002 1904 1977 2006 1791 1883 1711 1009 962 1583 1158 1442 697 857 1007 589 261 377 364 93 534 643 688 238 777
1761 1968 2752 2975 2792 2628 2367 2219 2385 2684 2541 2256 1920 1965 1970 1381 1518 1500 1556 2045 1988 1985 1832 1862 1389 1357 942 1258 962 938 982 884 617 170 132 687 301 275 452 172 163 865 583
1707 1814 2595 3223 3140 2995 2550 2361 2594 2702 2437 2170 2152 2141 2169 2068 1709 1757 1642 1605 1837 1711 1954 1803 1094 1436 1203 1230 1044 704 794 622 544 494 36 596 614 846 650 778 0 189 813
1610 2027 2430 2649 2996 2650 2434 2430 2462 2307 2158 2067 2162 2060 2027 2087 2097 2034 1902 1807 1528 1443 1579 1553 1137 1454 1426 1077 795 731 920 760 687 408 217 486 776 833 710 505 372 716 169
1984 2047 2096 2186 2369 2535 2478 2436 2294 2092 2000 2117 2090 2068 1982 1916 1905 1885 1960 1850 1862 1884 1453 1714 1780 1387 1448 1111 955 925 858 840 606 302 261 378 1289 1173 643 511 629 218 150
2058 2077 1927 1528 1241 1477 1434 2133 2242 2236 2096 2143 2157 2081 1934 1987 1775 1924 2255 2366 1799 1770 1819 1537 1451 1907 1861 1445 1161 964 817 835 687 301 353 319 1284 1415 902 687 850 1015 62
1314 1032 715 695 547 819 1020 1439 2091 2083 2137 1977 2067 2160 1919 1388 1450 1871 1874 2021 1763 1716 1807 1584 1467 1565 1814 1867 1500 1039 913 678 385 206 279 510 1356 1069 881 816 632 701 153
564 217 86 199 142 228 1094 1192 1112 1180 1512 1567 1603 1392 1262 1070 894 1315 1732 1680 1667 1444 1503 1682 1740 1494 1382 1233 1472 1552 958 609 419 190 632 822 1606 971 1343 1171 1147 755 462
260 176 72 110 42 112 156 148 606 1027 1214 1087 1302 1341 1115 845 808 1167 885 1002 1129 1462 1006 1249 1335 1224 907 940 884 1144 1034 619 470 502 534 1071 1552 1082 1535 1863 1243 795 814
141 75 9 23 47 41 45 146 240 723 934 750 904 742 528 397 341 173 176 354 679 796 847 781 592 481 361 481 459 527 614 748 592 415 513 1099 1680 1668 1741 1729 2048 1096 883
40 0 0 0 90 16 52 83 114 114 398 476 525 547 332 233 115 32 2 161 361 427 517 351 128 60 0 0 21 96 454 546 625 496 762 1120 1664 1568 1470 1630 1455 1365 1278
0 0 0 0 20 16 45 83 60 49 56 134 153 91 185 74 2 0 0 19 231 226 302 191 121 56 23 37 0 8 112 480 791 590 394 659 1658 1699 1551 1418 1464 1438 1354
0 0 0 0 1 0 20 20 84 24 2 1 32 4 15 52 4 12 11 42 194 205 153 114 86 55 76 77 93 76 184 183 295 603 524 541 433 1302 1677 1834 1623 1938 1649
0 0 0 0 0 0 4 140 218 100 19 0 3 5 0 104 26 72 49 106 66 74 77 27 18 0 0 0 27 94 327 323 508 675 673 673 511 513 843 1728 1492 1499 1427
0 0 0 0 0 0 26 135 205 91 50 11 0 0 13 115 141 48 62 22 15 37 25 8 0 0 18 15 5 21 77 183 257 402 478 482 745 820 895 1233 1478 1595 1637
0 0 0 0 48 260 112 68 8 0 26 17 15 22 32 149 140 63 55 3 4 70 74 33 24 15 22 33 9 342 498 292 248 297 312 426 716 613 1018 993 841 1202 1498
0 0 0 0 86 69 0 0 0 0 1 1 0 7 14 6 52 40 41 20 5 30 115 92 139 76 57 1 116 155 34 3 7 5 74 214 312 445 564 840 906 961 986
0 0 0 0 24 151 87 0 0 0 0 0 6 0 4 8 32 32 23 0 0 16 54 137 262 69 30 55 197 52 75 0 0 11 7 117 101 259 330 352 488 420 414
3 94 0 19 9 10 308 0 0 0 0 0 0 8 6 36 50 87 103 51 39 65 138 158 191 214 181 144 73 92 11 0 1 8 7 7 4 6 31 49 77 71 79
175 240 8 112 0 0 108 0 0 0 0 0 0 51 92 265 219 167 77 68 82 47 46 88 58 89 67 134 51 60 0 0 0 4 11 8 6 6 10 8 6 3 0
225 379 12 3 8 495 26 0 0 0 7 20 53 24 58 75 119 126 109 100 93 85 134 116 299 119 61 99 119 31 37 1 0 0 7 9 5 2 10 8 18 24 25
795 509 315 505 815 651 0 0 206 109 156 223 69 7 13 28 69 121 97 68 63 49 73 117 102 120 133 126 31 15 28 62 2 0 9 13 6 4 3 3 4 2 15
CIN
-54 -14 -7 0 0 0 -1 -4 -1 -1 0 0 0 0 0 0 0 0 0 0 0 0 0 0 0 0 0 0 0 0 0 0 0 0 0 0 0 0 0 0 0 0 0
-77 -3 -9 0 0 0 0 0 0 0 0 0 0 0 0 0 0 0 0 0 0 0 0 0 0 0 -1 0 0 0 0 0 0 0 0 0 -3 -4 0 -2 -2 -10 0
-35 -2 0 0 0 0 0 0 0 0 0 0 0 0 0 0 0 0 0 0 0 0 0 0 0 0 0 0 0 0 0 0 0 0 0 -3 -32 -12 0 0 -51 0 -8
-52 -6 -2 0 0 0 0 0 0 0 0 0 0 0 0 0 -1 0 0 0 0 0 0 0 0 0 0 0 0 0 -1 0 0 -1 -9 -2 -9 0 -1 0 0 -5 0
-53 -39 -3 0 0 0 0 0 0 0 0 0 -2 0 0 0 0 0 -1 -1 0 0 0 0 0 0 0 0 0 0 0 0 0 -9 -23 -14 -8 -24 0 0 -1 -12 0
-70 -56 -3 0 0 0 0 0 0 0 -1 -10 -14 0 -2 -10 0 0 0 0 0 0 0 0 0 0 0 -2 0 -4 -2 0 -1 -31 -40 -2 -10 -3 -1 -11 -17 0 0
-102 -49 -1 0 0 0 0 0 0 0 -1 -6 -3 -1 0 0 -1 0 0 -2 0 -4 0 0 0 0 0 0 0 -3 -2 -6 -18 -19 -29 -8 -5 0 0 0 0 -16 0
-94 -26 -2 0 0 0 0 0 0 0 -1 -4 -2 -4 0 0 0 0 0 -2 0 -1 -5 0 0 0 0 -1 -4 -5 -2 -6 -21 -46 -45 -20 -10 0 0 -1 -6 -1 -26
-22 -28 -7 -4 -2 0 0 0 0 0 0 0 0 0 0 0 0 0 0 0 0 0 -1 -1 0 0 0 -4 -10 -9 -6 -7 -37 -58 -47 -40 -5 0 0 0 0 -19 -32
-19 -2 -6 -19 -83 -25 -16 0 0 0 0 0 0 0 -2 0 0 0 0 -1 0 0 0 -5 -5 0 0 0 -4 -11 -11 -7 -37 -57 -54 -54 -8 0 0 0 0 0 -41
-67 -98 -120 -110 -145 -116 -54 -13 -2 0 0 0 -2 -1 -3 -19 -12 -2 -3 -1 0 0 0 -2 -8 -4 0 0 0 -12 -12 -52 -51 -78 -100 -53 -8 -1 0 0 0 0 -25
-151 -221 -322 -239 -248 -165 -47 -16 -15 -28 -10 -6 -7 -11 -39 -38 -56 -19 -3 0 0 0 0 0 -1 -7 -4 -9 -9 -1 -37 -64 -60 -86 -76 -47 -11 -14 -1 0 0 0 -3
-212 -230 -280 -254 -284 -201 -190 -199 -47 -18 -22 -26 -17 -19 -29 -51 -53 -22 -36 -32 -30 -3 -12 -4 -4 -13 -32 -31 -26 -21 -33 -59 -70 -80 -70 -49 -21 -16 0 0 0 -2 0
-258 -296 -314 -299 -164 -175 -225 -176 -115 -27 -20 -47 -37 -32 -40 -70 -110 -168 -175 -118 -61 -50 -37 -38 -52 -55 -62 -51 -43 -44 -55 -59 -69 -90 -99 -51 -28 -12 -2 -5 -1 0 -4
-267 0 0 0 -168 -67 -125 -140 -147 -152 -53 -40 -74 -67 -85 -97 -155 -291 -53 -177 -101 -92 -79 -98 -157 -190 0 0 -221 -114 -61 -68 -64 -96 -85 -54 -25 -24 -13 -2 -13 -1 0
0 0 0 0 -147 -254 -179 -210 -236 -142 -163 -105 -137 -163 -106 -140 -58 0 0 -134 -130 -131 -104 -137 -161 -204 -133 -171 0 -87 -119 -70 -48 -78 -111 -96 -31 -22 -15 -12 -12 -13 -11
0 0 0 0 -14 0 -295 -244 -142 -159 -145 -14 -153 -230 -184 -119 -180 -211 -256 -203 -128 -123 -140 -171 -189 -207 -175 -149 -140 -149 -111 -115 -78 -73 -88 -105 -96 -50 -33 -20 -17 -13 -11
0 0 0 0 0 0 -63 -72 -47 -91 -165 -28 -164 -155 -30 -78 -153 -149 -182 -160 -189 -150 -144 -216 -251 -47 0 0 -181 -139 -79 -87 -86 -77 -91 -98 -111 -108 -75 -37 -28 -19 -17
0 0 0 0 0 0 -327 -182 -119 -125 -95 -154 0 0 -135 -88 -79 -142 -160 -185 -184 -162 -175 -188 -12 0 -193 -194 -223 -168 -129 -109 -110 -80 -97 -97 -90 -81 -77 -66 -36 -23 -11
0 0 0 0 -109 -185 -233 -317 -182 0 -142 -101 -77 -109 -104 -68 -70 -110 -114 -87 -167 -85 -90 -110 -127 -154 -146 -111 -119 -50 -55 -83 -89 -90 -95 -92 -84 -85 -66 -75 -91 -41 -24
0 0 0 0 -292 -320 0 0 0 -1 0 -1 0 -113 -98 -132 -99 -119 -120 -126 -143 -111 -83 -84 -61 -88 -107 -95 -57 -75 -116 -130 -157 -159 -141 -118 -104 -80 -78 -72 -70 -70 -68
0 0 0 0 -164 -238 -299 0 0 0 0 0 -173 0 -113 -99 -121 -120 -146 0 0 -86 -78 -47 -39 -93 -116 -103 -51 -95 -56 -7 0 -97 -43 -93 -115 -84 -77 -73 -71 -82 -81
-206 -578 -1 -102 -92 -117 -149 0 0 0 0 0 -54 -210 -98 -98 -98 -78 -88 -87 -77 -85 -68 -57 -50 -45 -59 -84 -111 -92 -46 0 0 0 0 0 0 -56 -109 -85 -84 -93 -90
-572 -481 -106 -395 0 0 -203 0 0 0 0 0 0 -139 -83 -71 -62 -68 -90 -95 -101 -121 -125 -116 -102 -111 -115 -85 -129 -111 0 0 0 0 0 0 0 0 -43 0 0 0 0
-423 -373 -686 -31 -22 -128 -220 0 0 0 -275 -170 -129 -147 -131 -129 -98 -66 -74 -71 -70 -74 -64 -64 -43 -75 -84 -68 -63 -93 -73 0 0 0 -15 -2 -1 0 -32 -3 -71 -68 -64
-260 -332 -406 -280 -131 -111 0 0 -109 -138 -118 -115 -112 -54 -96 -151 -140 -95 -91 -99 -106 -106 -70 -55 -64 -61 -50 -51 -77 -118 -108 -48 -1 0 -4 -4 -7 0 0 0 0 0 -32
Wind_Speed
4 6 13 16 17 16 15 14 14 14 15 16 17 17 16 15 15 15 14 13 12 11 10 9 9 11 12 12 12 13 13 13 15 15 14 16 14 13 13 14 13 11 12
8 7 14 15 16 16 16 15 14 14 14 15 15 14 14 14 14 14 13 13 12 12 10 10 10 11 10 12 11 13 12 13 12 15 13 14 15 13 12 13 12 11 13
10 8 11 14 16 17 16 15 15 15 15 14 14 14 14 13 12 13 13 12 12 13 12 13 11 12 12 12 12 12 14 13 11 12 12 6 8 14 12 14 12 10 13
10 7 8 14 14 16 16 15 15 15 15 15 14 14 13 12 12 12 12 12 11 13 12 12 11 12 12 12 12 12 13 12 12 11 5 7 9 12 13 14 12 10 11
9 8 9 15 14 15 15 14 14 14 14 14 14 14 12 11 10 10 9 11 10 10 12 12 12 11 11 11 12 13 11 11 11 8 4 4 5 9 12 12 12 12 11
6 8 14 15 15 15 15 15 14 13 13 12 13 12 12 12 11 9 8 7 9 9 10 10 11 13 12 11 11 11 9 13 10 5 4 6 4 10 12 12 11 10 11
9 5 9 17 14 14 15 15 15 14 13 12 13 13 12 11 10 8 8 8 7 7 8 8 11 12 12 11 11 11 10 9 6 6 5 4 4 9 10 11 11 11 9
7 5 5 10 13 14 14 14 13 14 13 12 13 11 10 10 9 7 8 8 7 6 7 9 9 11 12 12 10 9 8 7 4 6 7 6 7 9 11 11 11 11 10
6 7 5 6 7 12 12 12 14 13 13 13 12 12 10 9 7 7 6 6 7 7 7 8 10 10 12 12 10 9 7 7 4 3 7 5 9 11 10 10 11 11 10
5 4 5 4 6 5 2 11 12 14 14 14 13 11 10 10 9 8 7 6 7 8 8 9 8 9 9 10 10 10 8 6 3 3 5 5 11 12 11 11 11 11 10
4 5 4 4 2 5 4 2 10 13 14 14 12 12 9 3 4 6 6 7 7 7 7 7 9 9 9 10 10 10 9 3 3 2 3 9 11 13 11 11 11 11 11
4 4 3 3 3 4 4 3 2 3 3 4 4 4 3 4 4 4 5 8 8 7 7 7 8 7 8 3 2 7 2 4 4 3 2 11 13 15 14 13 12 13 12
4 4 3 2 2 2 4 4 1 2 2 2 3 3 3 2 2 2 2 2 2 6 1 1 1 1 2 2 3 3 4 4 3 3 4 12 13 15 14 15 15 15 14
7 5 2 5 4 1 2 3 4 3 3 3 4 4 2 1 2 2 2 3 2 1 2 2 1 1 0 2 3 3 4 4 3 3 4 10 13 14 15 16 17 16 15
6 5 6 3 3 4 4 4 3 3 2 3 3 4 4 4 4 3 3 3 3 2 3 2 2 2 2 3 3 4 5 5 6 3 3 10 12 14 14 14 15 17 17
6 6 5 3 7 2 7 4 2 0 1 3 3 3 3 3 3 4 4 3 3 3 3 3 3 3 3 3 4 5 5 5 6 6 5 5 9 12 14 15 16 16 18
6 6 5 5 5 5 4 3 3 3 2 3 3 5 3 6 6 6 5 4 4 3 3 2 1 1 2 3 5 5 4 5 6 6 6 5 7 13 15 17 16 16 17
6 8 5 4 5 5 5 5 4 3 2 3 3 4 6 6 8 5 5 5 3 3 2 3 3 2 3 4 4 4 4 4 6 6 6 6 7 6 10 16 14 15 15
5 6 6 5 5 6 6 3 2 3 4 4 5 4 7 6 7 6 5 3 4 3 3 3 3 3 3 4 5 5 5 4 5 5 6 6 7 6 5 7 12 13 15
3 4 4 4 4 2 2 3 1 1 0 2 3 3 5 5 6 5 3 3 4 3 4 4 5 5 4 4 5 5 4 3 3 4 5 4 5 6 6 5 4 5 12
4 6 5 4 4 3 2 2 2 2 0 1 2 5 4 4 5 5 4 4 4 6 7 5 4 6 5 4 1 2 1 2 4 3 3 4 5 5 5 4 3 4 4
4 5 6 7 6 4 1 2 2 2 1 1 1 3 1 3 4 4 4 4 6 5 6 6 6 2 3 5 3 0 1 1 3 4 4 3 3 2 2 1 2 1 2
5 5 6 6 6 5 3 2 2 3 2 1 1 1 3 4 3 5 5 6 6 6 6 6 6 6 3 3 5 3 2 3 1 2 5 4 4 4 4 4 5 5 4
6 5 6 5 6 5 4 2 2 3 2 2 1 0 1 3 2 2 4 4 4 3 5 3 3 3 2 4 2 3 1 3 3 2 2 2 4 4 4 4 5 5 4
5 5 6 6 5 4 5 4 2 2 2 2 0 0 2 2 2 3 1 0 1 2 2 4 3 4 3 2 2 2 1 1 1 2 3 2 2 4 2 3 4 4 5
5 5 5 6 5 5 6 6 6 5 4 4 2 2 1 1 1 2 2 2 1 2 3 3 3 4 4 3 2 3 3 3 4 3 2 2 3 2 4 4 4 4 4
Wind_Direction
168 166 143 132 130 133 136 127 124 121 117 116 121 126 132 138 142 146 147 148 142 140 136 124 117 118 119 124 119 122 124 132 126 124 128 123 110 111 116 117 113 112 114
135 151 139 137 136 140 141 135 131 126 124 125 128 132 137 143 148 148 143 146 140 139 136 128 127 123 127 119 122 126 129 129 132 130 124 122 117 121 111 115 119 125 120
140 142 139 145 144 145 145 143 140 137 136 135 135 139 145 148 147 149 145 146 147 142 138 130 131 128 122 129 135 136 137 135 133 124 120 121 122 128 126 131 117 127 127
141 130 141 150 147 146 149 149 146 146 144 142 141 142 147 144 143 145 153 156 149 142 136 135 140 129 134 140 135 141 137 139 125 118 103 142 128 133 133 125 127 126 117
139 140 153 154 151 150 152 153 154 152 152 151 147 148 147 146 145 148 153 150 151 140 142 142 141 136 144 138 138 143 142 139 132 118 82 105 117 142 134 132 133 137 127
153 155 160 159 155 156 157 160 161 160 165 160 154 156 151 148 147 144 146 148 151 155 155 146 139 140 145 140 139 143 148 141 133 132 124 142 132 148 154 142 143 137 145
159 172 159 159 160 161 162 167 168 167 173 167 165 166 162 165 171 162 160 155 160 165 152 157 148 146 147 143 144 149 152 168 152 155 154 148 163 157 166 148 148 147 142
135 114 130 162 157 161 169 172 173 172 173 174 169 172 171 172 173 176 175 174 172 174 170 162 163 157 151 151 153 157 165 165 134 174 166 168 188 173 171 160 160 152 153
134 127 118 126 161 166 171 181 179 182 180 179 178 177 178 183 185 184 182 182 192 191 196 185 171 170 164 159 161 155 164 162 138 151 172 176 190 188 180 175 169 166 166
133 115 101 127 109 88 86 188 195 185 190 187 185 189 186 188 193 197 181 193 193 199 206 205 190 181 173 166 174 166 168 163 151 193 199 190 191 193 188 187 189 178 178
109 101 131 113 82 122 117 238 197 198 192 198 191 193 191 169 203 206 181 207 203 207 215 220 207 188 184 178 183 183 177 154 171 153 175 189 193 197 198 197 198 192 190
120 86 60 129 123 149 143 153 204 211 210 184 192 207 172 167 183 183 205 212 208 206 215 218 217 211 192 187 203 196 147 182 186 182 192 201 201 201 198 198 201 201 202
126 133 209 129 104 136 134 135 130 181 195 173 200 193 174 162 214 175 181 255 215 210 179 185 291 329 163 169 206 201 188 190 209 216 208 207 206 206 206 199 204 208 212
149 169 177 246 99 37 116 113 144 168 212 191 175 180 169 181 203 211 224 226 207 185 183 179 179 169 320 184 210 236 224 206 215 232 244 228 210 212 214 207 203 210 213
150 175 194 226 143 203 177 162 161 175 184 224 166 178 170 187 200 183 219 218 193 188 179 183 181 235 212 237 240 244 240 224 218 217 225 253 218 211 220 223 214 212 215
155 187 194 192 217 158 252 114 223 75 158 177 158 169 186 207 194 189 200 229 212 187 186 185 192 202 227 230 249 236 246 245 220 216 222 240 240 223 223 227 230 218 221
173 175 194 180 168 180 283 314 258 250 181 230 188 170 215 211 197 189 208 209 212 194 176 176 219 260 267 264 260 263 262 239 245 230 225 227 239 245 238 225 230 226 226
160 171 199 179 170 200 209 207 218 233 226 216 217 190 199 212 204 189 192 190 172 201 182 179 197 230 257 257 256 251 250 239 247 243 226 227 227 234 249 242 232 233 234
148 141 206 218 249 251 226 213 213 195 202 205 204 191 206 213 205 192 190 201 173 175 189 199 219 214 235 243 248 244 247 242 236 235 238 238 234 234 240 241 229 237 237
99 128 194 201 237 155 103 88 25 46 293 192 189 178 182 187 199 173 197 193 178 187 204 201 218 216 229 244 241 240 244 264 263 248 255 258 250 245 239 239 247 245 242
126 150 196 202 206 169 162 173 179 147 171 126 179 166 163 182 187 184 184 200 198 205 211 202 207 219 223 211 211 258 129 35 54 355 318 282 276 262 246 246 242 245 264
176 194 185 201 202 221 214 158 141 143 131 166 216 162 162 249 204 200 196 209 210 214 221 221 211 206 225 188 168 84 156 160 53 30 25 17 14 337 335 319 271 304 304
198 211 197 211 193 213 198 102 86 66 65 36 44 254 177 215 241 230 216 210 214 206 217 205 208 204 188 194 216 152 144 217 135 350 31 32 53 57 64 65 71 65 58
201 182 205 201 207 212 177 159 139 123 99 308 306 229 48 154 200 281 238 223 212 205 203 196 223 200 167 197 217 219 137 143 156 167 53 37 46 49 62 66 64 69 75
264 189 185 190 195 206 178 174 147 124 134 155 351 48 84 66 82 114 100 188 213 245 233 218 213 204 208 190 202 151 168 166 126 145 153 141 75 12 21 79 78 76 94
247 218 187 181 200 199 177 180 187 157 158 160 172 195 172 67 52 51 115 157 157 213 235 235 242 233 218 216 214 201 174 174 187 157 126 116 111 41 36 46 51 53 53